Location: Utrecht
(52.0830°N, 5.1330°E)
Time: 03:29:35
(UTC+02:00)

Daily predictions for brighter satellites

Satellite Brightness Start Highest point End
(mag) Time Altitude Azimuth Time Altitude Azimuth Time Altitude Azimuth
H-2A R/B 4.2 00:08:44 22° NW 00:08:44 22° NW 00:10:52 10° NNW
ATLAS 3B R/B 3.6 00:01:10 10° NW 00:07:23 42° N 00:07:23 42° N
CZ-4C R/B 3.8 00:22:17 10° NW 00:27:21 38° N 00:27:21 38° N
Cosmos 2360 Rocket 4.3 00:30:38 10° NNW 00:33:30 22° N 00:33:30 22° N
Cosmos 1980 Rocket 4.2 00:30:16 10° NNW 00:32:26 24° NNW 00:32:26 24° NNW
CENTAUR R/B 4.1 00:49:42 10° WNW 00:55:55 35° N 01:02:50 10° ENE
SL-16 R/B 4.4 01:03:53 10° NNW 01:05:41 21° NNW 01:05:41 21° NNW
Cosmos 2333 Rocket 4.5 01:23:41 10° NNW 01:27:31 19° NNE 01:27:31 19° NNE
Cosmos 2237 Rocket 4.5 01:39:19 10° NNW 01:43:06 19° NNE 01:43:06 19° NNE
Cosmos 2082 Rocket 4.4 01:49:22 21° NNE 01:49:22 21° NNE 01:51:21 10° NNE
CZ-3A R/B 4.5 01:44:33 75° S 01:45:55 79° SE 03:05:22 10° ENE
ATLAS 3B R/B 4.5 01:52:14 10° NW 01:54:37 23° NW 01:54:37 23° NW
ATLAS 2AS CENTAUR R/B 4.1 02:05:40 35° ENE 02:05:40 35° ENE 02:10:22 10° NE
Cosmos 2219 Rocket 4.3 02:11:53 10° NNW 02:14:19 22° N 02:14:19 22° N
CENTAUR R/B 4.0 02:41:37 10° NW 02:48:26 41° NNE 02:55:57 10° E
Cosmos 2333 Rocket 4.2 03:07:35 10° NNW 03:09:28 21° NNW 03:09:28 21° NNW
Cosmos 2237 Rocket 4.1 03:22:58 10° NNW 03:24:51 21° NNW 03:24:51 21° NNW
Cosmos 2082 Rocket 4.4 03:31:12 16° NNW 03:31:28 16° NNW 03:34:58 10° NNE
NOSS 3-1 (A) 4.4 03:37:55 42° NNW 03:38:01 42° NNW 03:44:46 10° NE
CZ-2D R/B 3.7 03:33:39 10° NE 03:37:58 27° E 03:37:58 27° E
SL-16 R/B 2.9 03:41:08 63° NE 03:41:08 63° NE 03:46:54 10° NNW
SL-16 R/B 3.1 03:45:28 10° NNW 03:50:58 46° NE 03:56:25 10° ESE
Resurs 1-4 Rocket 3.4 03:46:18 10° NNE 03:51:05 35° E 03:51:05 35° E
ATLAS 2AS CENTAUR R/B 3.1 03:53:06 63° NW 03:53:38 64° NW 04:01:46 10° NE
Cosmos 2219 3.8 03:55:04 52° NE 03:55:04 52° NE 03:59:18 10° NNE
Cosmos 2227 Rocket 3.2 04:06:02 37° ESE 04:06:18 37° ESE 04:11:28 10° NE
ARIANE 5 R/B 3.2 04:03:34 10° NNE 04:07:54 50° ENE 04:07:54 50° ENE
GEOS 3 Rocket 4.1 04:04:46 10° NE 04:08:54 56° ENE 04:08:54 56° ENE
Lacrosse 5 rocket 3.0 04:14:18 37° NE 04:14:18 37° NE 04:17:03 10° ENE
Cosmos 2297 Rocket 3.5 04:13:57 30° SE 04:15:02 32° ESE 04:19:59 10° NE
Okean O Rocket 4.0 04:15:26 10° NE 04:18:31 18° E 04:20:32 14° ESE
Nadezhda 3 Rocket 4.3 04:34:51 50° NW 04:34:51 50° NW 04:40:21 10° N
Lacrosse 5 2.5 04:35:24 47° ESE 04:35:24 47° ESE 04:39:52 10° ENE
ADEOS 3.8 04:30:09 10° NNE 04:34:39 61° NNW 04:34:39 61° NNW
Cosmos 968 Rocket 3.9 04:39:25 50° NNW 04:39:25 50° NNW 04:43:40 10° NNE
Meteor 1-18 Rocket 4.3 04:40:25 64° NW 04:40:25 64° NW 04:45:48 10° N
CENTAUR R/B 3.0 04:32:31 10° NW 04:40:07 84° NE 04:48:24 10° SE
USA 215 4.2 04:35:38 10° SSE 04:39:10 31° SSE 04:39:10 31° SSE
ERS-2 3.6 04:41:37 10° NNE 04:43:50 34° NNE 04:43:50 34° NNE
Okean 1-7 Rocket 3.9 04:47:51 63° NNE 04:47:51 63° NNE 04:51:38 10° NNE
UNKNOWN OBJECT B 3.5 04:43:41 10° NNE 04:46:59 54° NE 04:46:59 54° NE
Cosmos 1461 4.2 04:49:06 34° N 04:49:06 34° N 04:52:15 10° NNE
Cosmos 2082 3.8 04:48:15 55° SSE 04:49:17 68° ESE 04:54:53 10° NE
Cosmos 1459 Rocket 4.5 04:44:28 10° N 04:50:49 61° ENE 04:57:04 10° SSE
Cosmos 1727 Rocket 4.0 04:49:57 38° S 04:52:32 79° E 04:58:54 10° NNE
Cosmos 1346 Rocket 3.6 05:05:12 41° SE 05:06:07 50° E 05:10:03 10° NNE
IRS-1D 3.7 05:05:08 10° N 05:10:21 54° WNW 05:10:46 53° W
Cosmos 2344 3.8 05:07:43 40° WSW 05:11:06 80° NW 05:20:47 10° NE
Cosmos 2058 Rocket 3.0 05:10:22 10° N 05:14:46 82° E 05:17:58 18° SSE
Meteor 1-15 Rocket 4.1 05:09:19 10° NNW 05:14:55 86° ENE 05:20:33 10° SSE
CZ-4B R/B 4.0 05:09:40 10° NNE 05:14:56 49° E 05:20:16 10° S
Thor Agena Rocket 4.0 05:09:54 10° SSE 05:15:08 64° ENE 05:20:22 10° NNW
Cosmos 1605 Rocket 4.2 05:09:45 10° NNW 05:15:33 45° W 05:15:54 44° W
Cosmos 1153 Rocket 4.5 05:10:28 10° NNW 05:16:42 61° W 05:20:35 24° SSW
CZ-2D R/B 2.2 05:13:23 10° N 05:18:30 54° WNW 05:19:17 49° W
RESURS DK-1 2.2 05:19:33 77° SW 05:19:49 87° WNW 05:24:01 10° NNE
Cosmos 1025 Rocket 2.8 05:19:38 66° SSW 05:20:12 81° W 05:24:33 10° N
PSLV R/B 4.1 05:17:12 10° NNE 05:21:21 70° ESE 05:22:55 36° S
NOSS 3-4 (A) 3.5 05:21:31 40° SW 05:24:01 81° NW 05:30:45 10° NE
NOSS 3-4 (C) 3.5 05:21:36 40° SW 05:24:08 82° NW 05:30:52 10° NE
SL-16 R/B 3.6 05:26:15 26° WNW 05:26:15 26° WNW 05:30:09 10° NNW
IRS-1C Rocket 4.3 05:19:51 10° NNE 05:25:10 71° ESE 05:29:18 17° S
CZ-2C R/B 3.6 05:23:18 20° S 05:26:31 69° WSW 05:31:13 10° NNW
Cosmos 1339 Rocket 4.5 05:23:16 27° SSW 05:26:56 74° WNW 05:33:24 10° N
Cosmos 1666 3.7 05:27:15 10° NNW 05:29:39 33° NW 05:29:39 33° NW
Resurs 1-4 Rocket 2.5 05:26:06 10° N 05:31:07 44° WNW 05:32:09 39° W
Cosmos 1898 Rocket 3.9 05:28:38 19° S 05:32:23 65° ESE 05:37:38 10° NNE
AVUM R/B 4.2 05:34:13 33° ENE 05:34:13 33° ENE 05:36:17 10° ESE
SL-16 R/B 2.5 05:29:47 10° NW 05:35:04 40° WSW 05:40:18 10° S
ARGOS Delta rocket 4.4 05:30:57 10° N 05:35:32 41° WNW 05:36:20 38° W
Meteor 1-19 Rocket 4.2 05:33:16 32° SW 05:35:52 65° WNW 05:41:27 10° N
Meteor 2-4 Rocket 3.8 05:31:43 19° SSW 05:36:05 84° W 05:42:05 10° NNE
Meteor 2-9 Rocket 4.2 05:32:08 10° NNW 05:37:41 58° W 05:43:19 10° S
Cosmos 2219 4.4 05:37:00 23° WNW 05:38:31 26° NW 05:43:12 10° NNE
Cosmos 2098 Rocket 3.0 05:34:50 10° N 05:38:43 83° E 05:43:40 10° S
Cosmos 1937 Rocket 4.1 05:35:23 11° S 05:40:23 56° ESE 05:45:35 10° NNE
MOS 1-B 4.4 05:35:29 10° N 05:41:10 59° WNW 05:44:09 28° SW
Cosmos 1606 Rocket 4.2 05:38:02 10° NNW 05:41:21 34° WNW 05:41:21 34° WNW
Tiangong 1 3.6 05:45:14 12° SSE 05:45:14 12° SSE 05:45:50 10° SSE
Cosmos 220 Rocket 4.3 05:44:26 41° W 05:45:07 45° WNW 05:49:12 10° NNE
ATLAS 2AS CENTAUR R/B 4.0 05:40:33 17° WNW 05:46:09 38° N 05:53:38 10° ENE
ARIANE 5 R/B 3.5 05:43:10 10° N 05:47:27 28° WNW 05:48:14 27° WNW
GEOS 3 Rocket 4.4 05:43:04 10° NE 05:47:45 37° NNW 05:50:00 25° WNW
BREEZE-M DEB (TANK) 4.1 05:46:48 37° WSW 05:48:11 58° S 05:57:17 10° ESE
Meteor 1-23 Rocket 4.2 05:45:39 16° SSW 05:50:14 73° WNW 05:56:01 10° N
Cosmos 2227 Rocket 2.5 05:47:53 31° WSW 05:50:16 49° NW 05:55:47 10° NNE
Cosmos 1726 Rocket 4.1 05:47:33 10° NNW 05:51:34 35° W 05:51:48 35° W
CZ-2D R/B 3.9 05:48:01 10° N 05:51:45 37° WNW 05:52:16 36° W
Lacrosse 5 rocket 2.3 05:50:02 25° WNW 05:52:17 44° N 05:56:31 10° ENE
DNEPR-1 R/B 4.3 05:47:47 10° NW 05:53:12 63° NE 05:57:42 10° ESE
Okean O Rocket 1.6 05:50:57 10° N 05:55:19 62° WNW 05:57:59 23° SW
Cosmos 2100 Rocket 4.2 05:51:16 10° NNW 05:57:12 48° W 06:03:12 10° SSW
Cosmos 2297 Rocket 2.4 05:55:48 26° WSW 05:58:50 55° NW 06:04:25 10° NNE
Cosmos 1802 Rocket 4.0 05:56:15 10° NNW 06:02:14 54° W 06:08:09 10° SSW
Cosmos 2061 Rocket 4.2 05:59:34 10° NNW 06:05:34 47° W 06:11:37 10° SSW
PSLV R/B 3.7 06:02:08 10° NNE 06:06:30 79° ESE 06:10:48 10° S
MOS 1 Rocket 4.5 06:01:56 10° NNE 06:06:36 48° E 06:11:32 10° S
Cosmos 1725 Rocket 3.9 06:01:07 10° NNW 06:07:26 81° W 06:13:42 10° S
Cosmos 1602 Rocket 3.7 06:04:35 10° S 06:09:00 76° E 06:13:25 10° NNE
Cosmos 2228 3.4 06:06:15 10° NNW 06:10:22 40° W 06:14:27 10° SSW
Cosmos 2084 Rocket 3.3 06:08:38 18° WNW 06:11:15 53° SW 06:15:08 10° SSE
CZ-4B R/B 3.2 06:07:30 10° N 06:11:50 57° WNW 06:16:08 11° SSW
Cosmos 1892 Rocket 4.0 06:10:07 20° SW 06:12:51 42° WNW 06:17:08 10° N
Cosmos 1943 3.2 06:09:47 10° NNW 06:15:27 89° ENE 06:21:06 10° SSE
Lacrosse 5 2.0 06:14:37 21° W 06:17:56 64° NNW 06:22:59 10° ENE
ERS-2 4.1 06:16:43 10° NNW 06:18:37 14° NW 06:18:39 14° WNW
ADEOS Rocket 3.3 06:11:49 10° NNE 06:19:04 77° WNW 06:25:34 10° SSW
Meteor 2-17 Rocket 4.4 06:13:02 10° NNW 06:19:12 83° W 06:25:22 10° S
SKYMED 2 4.5 06:15:16 10° SE 06:19:29 53° ENE 06:23:44 10° N
COBE Rocket 4.4 06:15:34 10° NNE 06:20:20 62° E 06:24:58 10° S
CZ-4B DEB 4.3 06:15:24 10° N 06:20:48 61° WNW 06:26:13 10° SSW
COS B Rocket 3.9 06:21:56 20° WNW 06:21:56 20° WNW 06:23:29 10° NNW
ADEOS II 2.1 06:16:21 10° NNE 06:21:40 89° ESE 06:26:56 10° SSW
Cosmos 468 4.4 06:16:59 10° NNW 06:22:11 66° WSW 06:27:22 10° S
Cosmos 1603 4.0 06:17:33 10° NW 06:22:58 43° WSW 06:28:17 10° S
SeaSat 1 3.7 06:20:27 10° ESE 06:25:06 44° NE 06:29:48 10° NNW
OPS 6432 4.2 06:22:48 16° SW 06:25:11 78° SE 06:28:18 10° NE
Meteor 1-22 Rocket 4.3 06:19:57 10° NNW 06:25:28 81° ENE 06:31:11 10° SSE
Cosmos 2016 Rocket 4.3 06:21:24 10° NNW 06:27:21 44° W 06:33:13 10° SSW
Cosmos 1812 Rocket 3.6 06:24:13 10° NNW 06:28:36 58° W 06:32:59 10° S
Okean 2 4.3 06:27:30 17° WSW 06:29:58 29° WNW 06:33:36 10° N
CENTAUR R/B 3.6 06:23:38 10° NW 06:30:25 34° WSW 06:37:34 10° S
Cosmos 2263 Rocket 4.2 06:25:59 10° SSE 06:30:43 30° ESE 06:35:29 10° NE
Cosmos 990 Rocket 4.0 06:32:23 10° SSW 06:37:39 73° WNW 06:42:54 10° NNE
Cosmos 1048 Rocket 3.9 06:36:37 10° NNW 06:41:45 67° WSW 06:46:48 10° SSE
Ariane Rocket 4.3 06:37:22 10° NNE 06:42:16 45° E 06:47:09 10° S
COSMOS 2406 4.4 06:37:21 10° NNW 06:42:48 45° NE 06:48:13 10° ESE
Cosmos 1346 Rocket 4.3 06:40:48 14° W 06:42:51 20° WNW 06:45:52 10° NNW
NOSS 2-2 (D) 3.8 06:43:03 10° SW 06:47:20 84° SE 06:52:38 10° NE
Cosmos 1269 Rocket 4.1 06:42:34 10° NNW 06:47:43 54° WSW 06:52:51 10° S
Cosmos 158 Rocket 3.9 06:47:20 10° NNW 06:52:24 83° WSW 06:57:34 10° SSE
Cosmos 1758 4.3 06:50:09 10° N 06:54:12 54° ENE 06:58:12 10° SSE
Cosmos 2123 Rocket 4.1 06:48:27 10° SSW 06:54:30 55° WNW 07:00:35 10° N
CZ-4B R/B 3.9 06:50:34 10° N 06:55:22 33° WNW 07:00:13 10° WSW
Helios 1B rocket 4.1 06:52:46 10° SE 06:56:36 39° ENE 07:00:27 10° N
CZ-2D R/B 4.0 06:55:31 10° NNW 06:57:32 12° NW 06:59:34 10° WNW
RESURS DK-1 4.1 06:55:38 10° W 06:58:32 18° NW 07:01:27 10° N
Genesis I 3.2 06:56:21 10° SW 07:00:22 79° NW 07:04:24 10° NE
NOSS 2-2 (C) 3.8 06:58:25 10° SW 07:02:45 78° NW 07:08:08 10° NE
NOSS 2-2 (E) 3.9 06:59:15 10° SW 07:03:39 73° NW 07:09:12 10° NE
SJ-6F 4.5 07:00:04 10° NNE 07:04:17 88° WNW 07:08:28 10° SSW
Intercosmos 25 Rocket 4.0 07:02:03 10° NNW 07:05:19 36° W 07:09:47 10° SSW
Cosmos 1766 3.4 07:01:35 10° NNW 07:05:33 58° W 07:09:29 10° S
Okean-O 3.1 07:01:29 10° N 07:05:38 39° WNW 07:09:46 10° SW
DMSP B5D1-3 4.5 07:00:43 10° S 07:05:48 71° WSW 07:10:56 10° NNW
USA 229 DEB 4.0 07:00:03 10° NW 07:07:10 82° NE 07:14:21 10° SE
USA 229 4.0 07:00:09 10° NW 07:07:15 81° NE 07:14:26 10° SE
COSMO-SKYMED 1 2.7 07:03:17 10° S 07:07:33 56° W 07:11:51 10° NNW
Cosmos 1825 Rocket 3.5 07:04:10 10° SSW 07:08:33 79° WNW 07:12:56 10° N
Meteor 1-31 Rocket 3.0 07:05:55 10° N 07:09:42 49° WNW 07:13:30 10° SW
Resurs 1-4 Rocket 4.1 07:09:04 10° NW 07:09:43 10° NW 07:10:22 10° NW
